This is the latest recevied weather packets stored in our database for station/object KF6YUA. If no packets are shown the sender has not sent any weather packets the latest 1 day(s).
| Time | Temp. | Humidity | Pressure | Rain* | Wind** | Luminosity | Snow |
|---|---|---|---|---|---|---|---|
| 1777986310 | 11.11° C | 99% | 1016.1 hPa | 0 mm | 0.45 m/s, 114° | 0 W/m² | - |
| 1777986009 | 11.11° C | 99% | 1016.4 hPa | 0 mm | 0.89 m/s, 127° | 0 W/m² | - |
| 1777985705 | 11.11° C | 99% | 1016.2 hPa | 0 mm | 0 m/s | 0 W/m² | - |
| 1777985401 | 11.11° C | 99% | 1016.1 hPa | 0 mm | 0 m/s | 0 W/m² | - |
| 1777985098 | 11.11° C | 99% | 1016.3 hPa | 0 mm | 0.45 m/s, 126° | 0 W/m² | - |
| 1777984794 | 11.11° C | 99% | 1016 hPa | 0 mm | 0.89 m/s, 132° | 0 W/m² | - |
| 1777984491 | 11.11° C | 99% | 1016.1 hPa | 0 mm | 0.89 m/s, 140° | 0 W/m² | - |
| 1777984187 | 11.11° C | 99% | 1016 hPa | 0 mm | 0.45 m/s, 160° | 0 W/m² | - |
| 1777983884 | 11.11° C | 99% | 1016.2 hPa | 0 mm | 0.89 m/s, 144° | 0 W/m² | - |
| 1777983581 | 11.11° C | 99% | 1016.1 hPa | 0 mm | 0 m/s | 0 W/m² | - |
| 1777983278 | 11.11° C | 99% | 1016.2 hPa | 0 mm | 0.89 m/s, 162° | 0 W/m² | - |
| 1777982973 | 11.11° C | 99% | 1016.2 hPa | 0 mm | 0 m/s | 0 W/m² | - |
| 1777982670 | 11.11° C | 99% | 1016.3 hPa | 0 mm | 0 m/s | 0 W/m² | - |
| 1777982369 | 11.11° C | 99% | 1016.2 hPa | 0 mm | 0.89 m/s, 128° | 0 W/m² | - |
| 1777982066 | 11.11° C | 99% | 1016.3 hPa | 0 mm | 0.89 m/s, 152° | 0 W/m² | - |
| 1777981764 | 11.11° C | 99% | 1016.3 hPa | 0 mm | 0 m/s | 0 W/m² | - |
| 1777981460 | 11.11° C | 99% | 1016.2 hPa | 0 mm | 0.45 m/s, 126° | 0 W/m² | - |
| 1777981156 | 11.11° C | 99% | 1016.4 hPa | 0 mm | 0 m/s | 0 W/m² | - |
| 1777980853 | 11.11° C | 99% | 1016.4 hPa | 0 mm | 0 m/s | 0 W/m² | - |
| 1777980549 | 11.11° C | 99% | 1016.4 hPa | 0 mm | 0 m/s | 0 W/m² | - |
| 1777980247 | 11.11° C | 99% | 1016.5 hPa | 0 mm | 0.45 m/s, 180° | 0 W/m² | - |
| 1777979943 | 11.11° C | 99% | 1016.5 hPa | 0 mm | 0.45 m/s, 157° | 0 W/m² | - |
| 1777979643 | 11.11° C | 99% | 1016.5 hPa | 0 mm | 0.89 m/s, 147° | 0 W/m² | - |
| 1777979334 | 11.11° C | 99% | 1016.3 hPa | 0 mm | 0.89 m/s, 156° | 0 W/m² | - |
| 1777979031 | 11.11° C | 99% | 1016.5 hPa | 0 mm | 0.89 m/s, 135° | 0 W/m² | - |
* Rain latest hour (hover to see other rain measurements)
** Current wind speed in m/s (hover to see current wind gust speed)